Location: ??????
(41.3164°N, 22.6615°E)
Time: 01:04:24
(UTC+00:00)

UWE-3 - Pass Details

Date: 05 July 2022
Orbit: 583 x 677 km, 97.7° (Epoch: 16 August)

Event Time Altitude Azimuth Distance (km) Brightness Sun altitude
Rises 01:58:00 0° 11° (N) 2,915 ? -10.4°
Reaches altitude 10° 02:00:11 10° 11° (N) 2,019 ? -10.1°
Maximum altitude 02:04:35 84° 283° (WNW) 653 ? -9.4°
Drops below altitude 10° 02:09:06 10° 196° (SSW) 2,060 ? -8.8°
Enters shadow 02:09:52 - 196° (SSW) 2,377 ? -8.7°
